User: anonymous   Login
Location: CNYAC Observatory
(43.2150°N, 74.9500°W)
Time: 10:54:26
(UTC-05:00)
Language:

Meteor 1-22 Rocket - Orbit

View from above orbital plane
View from above orbital plane
View from above satellite
View from above satellite

Ground track
Ground track

The orbit data is extracted from the following two-line orbital elements,

1 08294U 75087B   17051.22516054 -.00000270  00000-0 -15630-3 0  9998
2 08294  81.2140 136.6239 0106212  12.7621 347.6198 14.08573988128385
Epoch (UTC): 20 February 2017 05:24:13
Eccentricity: 0.0106212
inclination: 81.2140°
perigee height: 787 km
apogee height: 941 km
right ascension of ascending node: 136.6239°
argument of perigee: 12.7621°
revolutions per day: 14.08573988
mean anomaly at epoch: 347.6198°
orbit number at epoch: 12838

The dashed part of the orbit path shows where the satellite is in the earth's shadow,  

DLR